Погода в Джалалабаде

Погода в Джалалабаде : погода сейчас, прогноз погоды и архив. Всё, что Вы хотите узнать о погоде в Джалалабаде!

Поиск расширенной информации на нашем сайте:

Другие новости

Новости СМИ2

Главная страница сайта

Новости сайта

02.10.2013

Напоминаем, что на нашем новом сайте вы можете получить высокодетализированные прогнозы погоды по пунктам России, СНГ и мира (включающие важные для авиации метеовеличины, такие как направление и скорость ветра, видимость, явления погоды, количество и форма облачности, нижняя и верхняя граница облачности), а также ознакомиться с разнообразными материалами по авиационной метеорологии и подборкой полезных ссылок на эту тему.

Сайт Метеоцентр.Азия посвящён разработке технологий оптимизации авиаметеорологического обслуживания, включая проектирование и перспективное создание нескольких автоматизированных авиаметеорологических систем:
- система выпуска высокодетальных прогностических карт явлений погоды для нижнего воздушного пространства по России и ближнему зарубежью;
- система верификации прогнозов TAF (выпускаемых синоптиками официальных АМСГ РФ и ближнего зарубежья) и AUTOTAF (выпускаемых сайтом Метеоцентр.Азия) - выявление ошибок, онлайн-сопоставление с фактической погодой METAR, автоматическое внесение коррективов в прогнозы при резком отклонении фактической погоды от прогноза, подсчёт оправдываемости прогнозов по элементам и в целом;
- система обработки, анализа и отображения авиаметеорологической информации для применения провайдерами метеорологической информации.

Рекомендуем: Смотрите описание шкода на сайте.

Погода в Джалалабаде - сегодня

Время (UTC), дата Ветер
(°,м/с) 
Видим.   Явления Облачность Т
(°С)
Тd
(°С)
f(%) Тe
(°С)
Pmin
(гПа)
dP
(гПа)
Po
(мм)
O2
(г/м3)
Тmin Tmax R s Состояние
почвы
15 21.03.17 050 (СВ) н/о    10/0 средняя 
[As op]
+10.4 +4.3 66 +12  1012.5  2.5  692  267    +13.8       
18 21.03.17 040 (СВ) н/о    10/0 средняя 
[As op]
+9.4 +5.6 77 +9  1012.9  0.1  693  268    +13.8       
21 21.03.17 030 (СВ) н/о  слаб. дождь  10/10 600 м кучево-дожд. 
[Cb cap]
+9.2 +5.9 80 +10  1014.5  1.7  694  269           
00 22.03.17 040 (СВ) н/о    10/0 средняя 
[As op]
+8.4 +5.8 84 +9  1017.1  1.7  696  271           
06 22.03.17 020 (С) 20000 м  слаб. дождь  10/10 1000 м 
[Ns]
+10.5 +7.8 83 +11  1021.1  1.5  698  269  +8       
09 22.03.17 120 (ЮВ) 20000 м  {дождь}  8/0 средняя 
[As op]
+13.2 +7.3 67 +14  1019.6  -0.6  698  266           
12 22.03.17 010 (С) 20000 м    10/0 средняя, верхняя 
[As op|Ci fib]
+14.5 +5.6 55 +16  1017  -2  697  266           
18 22.03.17 080 (В) н/о    ясно 
+8 +5.1 82 +9  1018.4  -0.1  696  271    +15     
21 22.03.17 030 (СВ) н/о    ясно 
+6.8 +3.8 81 +8  1018.7  -0.1  696  272           
00 23.03.17 020 (С) н/о    3/0 верхняя 
[Ci fib]
+5.5 +3.6 88 +6  1021.4  2.1  698  275           
03 23.03.17 030 (СВ) 10 км    10/0 средняя 
[As op]
+7.6 +5.1 84 +9  1024.9  3.8  700  273           
06 23.03.17 020 (С) 10 км  {дождь}  10/0 средняя 
[As op]
+9.8 +7 83 +11  1025.6  1.4  701  271  +5.5         
09 23.03.17 030 (СВ) 20000 м    9/0 верхняя 
[Ci sp]
+15.2 +6.8 57 +17  1022.9  -0.9  701  266           
12 23.03.17 140 (ЮВ) 20000 м    9/0 верхняя 
[Ci sp]
+17 +5.1 45 +18  1021.5  -0.7  701  265           
15 23.03.17 010 (С) н/о    ясно 
+12 +5.8 66 +13  1023.5  0.3  700  268    +18.3  0.0     
18 23.03.17 040 (СВ) н/о    ясно 
+9.8 +4.1 68 +10  1023.7  -0.5  700  271    +18.3  0.0     
21 23.03.17 010 (С) н/о    ясно 
+7.6 +3.6 76 +9  1023.8  -0.5  700  273           
00 24.03.17 030 (СВ) н/о    ясно 
+6 +2.9 80 +7  1022.9  -1.5  699  275           
03 24.03.17 020 (С) 20000 м    10/0 средняя 
[As op]
+8.2 +1.1 61 +8  1020.9  -1.2  698  272           
06 24.03.17 180 (Ю) 20000 м    9/0 верхняя 
[Ci sp]
+14.2 +3.7 49 +15  1019.8  0.7  698  266  +5.8         
09 24.03.17 170 (Ю) 20000 м    9/0 верхняя 
[Ci sp]
+18.8 +5.2 41 +20  1014.7  -2.8  696  261           
12 24.03.17 270 (З) 20000 м    10/0 средняя 
[As op]
+17.2 +6.7 50 +19  1015.8  0.7  697  263           
15 24.03.17 020 (С) н/о    10/0 средняя 
[As op]
+12.8 +5.2 60 +13  1019.7  1.7  698  267    +19.7       
18 24.03.17 010 (С) н/о    10/0 средняя 
[As op]
+10.2 +2.8 60 +10  1022.4  0.7  699  270    +19.7       
21 24.03.17 020 (С) н/о    10/0 средняя 
[As op]
+8.7 +4.2 73 +9  1024.4  0.8  700  272           
Время (UTC), дата Ветер
(°,м/с) 
Видим.   Явления Облачность Т
(°С)
Тd
(°С)
f(%) Тe
(°С)
Pmin
(гПа)
dP
(гПа)
Po
(мм)
O2
(г/м3)
Тmin Tmax R s Состояние
почвы

Для получения пояснительной информации подведите курсор к названию столбца.

ПОГОДА в Джалалабаде - архив

Всё, что Вы хотите узнать о погоде в Джалалабаде - удобно и подробно!

Выберите нужную дату (начиная с 1 января 2015* года) и нажмите кнопку "Найти".
Будут отображены архивные сводки погоды по пункту Джалалабад, начиная с указанной даты.


Отображать данные в формате CSV (для использования в таблицах Excel)


Внимание! Наш архив погоды предназначен исключительно для личного некоммерческого использования в познавательных целях. Если Вам необходимы официальные справки о состоянии погоды (для производственных, юридических, коммерческих и т.п. целей), обращайтесь в органы Росгидромета.

*Примечание: данная дата относится к архиву по метеостанциям СССР (Россия, СНГ, Балтия).
Архив по метеостанциям Зарубежной Европы и Азии (кроме Китая) хранится 10 дней, по другим регионам земного шара (Китай, Африка, Америка, Австралия, Океания) - 1 день.

Джалалабад - район местоположения метеостанции


Название, широта, долгота, высота метеостанции:
Джалалабад 40.9°ш. 72.9°д. 765 м над ур. моря [Кыргызстан]

Дополнительная информация

В oтличие oт бoльшинства пoгoдных сайтoв мы публикуем пoдрoбную метеoинфoрмацию в детальнoм прoфессиoнальнoм фoрмате.

Характеристики температуры и влажнoсти вoздуха измеряются на высoте 2 м в тени вдали oт зданий и деревьев.
Скoрoсть ветра измеряется на высoте 10 м (на урoвне рoста челoвека скoрoсть ветра ниже в 1.5-2 раза). Если метеoстанция нахoдится в гoрoде или в лесу, тo скoрoсть ветра занижена на 2-4 м/с пo сравнению с oткрытым местoм. Скoрoсть ветра над акватoриями крупных рек и oзёр, а также на вершинах хoлмoв на 2-5 м/с выше, чем в oбычных услoвиях.
Атмoсфернoе давление в разных тoчках местнoсти мoжет значительнo oтличаться oт давления на метеoстанции, в зависимoсти oт услoвий рельефа (при пoдъёме на 10 м давление пoнижается примернo на 1 мм рт.ст.).